Regional Weather Roundup
Issued by NWS

Home | Current Version | Previous Version | Text Only | Print | Product List | Glossary On
Versions: 1 2 3 4 5 6 7 8 9 10 11 12 13 14 15 16 17 18 19 20 21 22 23 24 25 26 27 28
000
ASUS44 KBMX 250310
RWRAL

ALABAMA REGIONAL WEATHER ROUNDUP
NATIONAL WEATHER SERVICE BIRMINGHAM AL
1000 PM CDT FRI OCT 24 2014

NOTE: "FAIR" INDICATES FEW OR NO CLOUDS BELOW 12,000 FEET
WITH NO SIGNIFICANT WEATHER AND/OR OBSTRUCTIONS TO VISIBILITY.

THE REMARK "TC" DENOTES TEMPERATURE IN DEGREES CELSIUS.

ALZ001>011-014-016>018-020-250400-
NORTH ALABAMA

CITY           SKY/WX    TMP DP  RH WIND       PRES   REMARKS
MUSCLE SHOALS  MOCLDY    54  49  83 CALM      30.11R
HUNTSVILLE     CLEAR     55  43  63 CALM      30.09R
DECATUR        CLEAR     50  45  83 CALM      30.10R
HALEYVILLE     FAIR      48  46  93 CALM      30.13R
GADSDEN        CLEAR     46  39  76 CALM      30.08S
$$

ALZ012-013-022-023-030>036-040>044-250400-
WEST CENTRAL ALABAMA

CITY           SKY/WX    TMP DP  RH WIND       PRES   REMARKS
TUSCALOOSA     CLEAR     52  47  83 CALM      30.10R
$$

ALZ015-024>027-033>036-040>044-250400-
CENTRAL ALABAMA

CITY           SKY/WX    TMP DP  RH WIND       PRES   REMARKS
BIRMINGHAM     CLEAR     52  44  74 CALM      30.10R
MONTGOMERY     CLEAR     55  44  66 NW5       30.07R
SHELBY CO ARPT CLEAR     53  48  83 CALM      30.08S
MAXWELL AFB    CLEAR     52  46  81 N1        30.06R
GREENVILLE     FAIR      51  47  86 CALM      30.06S
$$

ALZ019-021-028-029-037-038-045>048-250400-
EAST CENTRAL ALABAMA

CITY           SKY/WX    TMP DP  RH WIND       PRES   REMARKS
ANNISTON       CLEAR     49  44  83 CALM      30.07S
ALEXANDER CITY CLEAR     50  48  92 CALM      30.07R
AUBURN         CLEAR     54  45  71 N5        30.09R
$$

ALZ051>064-250400-
SOUTHWEST ALABAMA

CITY           SKY/WX    TMP DP  RH WIND       PRES   REMARKS
MOBILE         CLEAR     55  49  80 CALM      30.08S
BROOKLEY FIELD CLEAR     54  48  80 W3        30.09R
EVERGREEN      CLEAR     52  48  86 CALM      30.07S
$$

ALZ049-050-065>069-250400-
SOUTHEAST ALABAMA

CITY           SKY/WX    TMP DP  RH WIND       PRES   REMARKS
DOTHAN         CLEAR     52  47  83 CALM      30.07S
OZARK          CLEAR     54  49  81 NW2       30.04S
TROY           CLEAR     50  46  86 CALM      30.07R
EUFAULA        FAIR      49  47  93 CALM      30.04R
$$



USA.gov is the U.S. government's official web portal to all federal, state and local government web resources and services.